HISPASAT 30W-5

Last updated on Wed Oct 15 2025 00:02:46 GMT+0000 (Coordinated Universal Time)

1 37264U 10070A 25287.19513117 -.00000230 00000+0 00000+0 0 9996 2 37264 0.0344 118.4903 0004968 64.8919 239.8646 1.00273691 50715
UTC large
Height (km)
Speed (km/s)
/
Latitude / Longitude
Inclination (degrees)
Orbital Period (minutes)
Azimuth
Elevation
Range (km)
Doppler Factor

Next 0 passes for location: London (51.5072 / 0.1276)

Sorry there are no passes over London.